This is the latest recevied weather packets stored in our database for station/object KC0AFB. If no packets are shown the sender has not sent any weather packets the latest 10 day(s).
| Time | Temp. | Humidity | Pressure | Rain* | Wind** | Luminosity | Snow |
|---|---|---|---|---|---|---|---|
| 1777606269 | 3.89° C | 55% | 1020.6 hPa | 0 mm | - | 0 W/m² | - |
| 1777605965 | 4.44° C | 55% | 1020.5 hPa | 0 mm | - | 0 W/m² | - |
| 1777605661 | 4.44° C | 55% | 1020.5 hPa | 0 mm | - | 0 W/m² | - |
| 1777605360 | 4.44° C | 55% | 1020.5 hPa | 0 mm | - | 0 W/m² | - |
| 1777605058 | 5° C | 54% | 1020.4 hPa | 0 mm | - | 0 W/m² | - |
| 1777604753 | 5° C | 54% | 1020.5 hPa | 0 mm | - | 0 W/m² | - |
| 1777604450 | 5° C | 54% | 1020.3 hPa | 0 mm | - | 0 W/m² | - |
| 1777604150 | 5° C | 54% | 1020.3 hPa | 0 mm | - | 0 W/m² | - |
| 1777603846 | 5° C | 53% | 1020.1 hPa | 0 mm | - | 0 W/m² | - |
| 1777603543 | 5° C | 53% | 1020.4 hPa | 0 mm | - | 0 W/m² | - |
| 1777603239 | 5° C | 53% | 1020.3 hPa | 0 mm | - | 0 W/m² | - |
| 1777602935 | 5.56° C | 52% | 1020.3 hPa | 0 mm | - | 0 W/m² | - |
| 1777602630 | 5° C | 53% | 1020 hPa | 0 mm | - | 0 W/m² | - |
| 1777602325 | 5.56° C | 53% | 1020.1 hPa | 0 mm | - | 0 W/m² | - |
| 1777602021 | 5.56° C | 52% | 1019.8 hPa | 0 mm | - | 0 W/m² | - |
| 1777601716 | 5.56° C | 51% | 1019.8 hPa | 0 mm | - | 0 W/m² | - |
| 1777601412 | 5.56° C | 51% | 1020.1 hPa | 0 mm | - | 0 W/m² | - |
| 1777601109 | 6.11° C | 51% | 1019.7 hPa | 0 mm | - | 0 W/m² | - |
| 1777600806 | 6.11° C | 51% | 1019.8 hPa | 0 mm | - | 0 W/m² | - |
| 1777600501 | 6.67° C | 51% | 1019.8 hPa | 0 mm | - | 1 W/m² | - |
| 1777600197 | 6.67° C | 50% | 1020.1 hPa | 0 mm | - | 4 W/m² | - |
| 1777599893 | 6.67° C | 50% | 1019.5 hPa | 0 mm | - | 7 W/m² | - |
| 1777599589 | 6.67° C | 51% | 1019.6 hPa | 0 mm | - | 11 W/m² | - |
| 1777599287 | 6.67° C | 50% | 1019.9 hPa | 0 mm | - | 14 W/m² | - |
| 1777598982 | 7.22° C | 50% | 1019.9 hPa | 0 mm | - | 19 W/m² | - |
* Rain latest hour (hover to see other rain measurements)
** Current wind speed in m/s (hover to see current wind gust speed)